Reflectivity
-20 -20 -20 -20 -20 -20 -20 -20 -20 -20 -20 -20 -20 -20 -20 -20 -20 -20 -20 -20 -20 -20
-20 -20 -20 -20 -20 -20 -20 -20 -20 -20 -20 -20 -20 -20 -20 -20 -20 -20 -20 -20 -20 -20
-20 -20 -20 -20 -20 -20 -20 -20 -20 -20 -20 -20 -20 -20 -20 -20 -20 -20 -20 -20 -20 -20
-20 -20 -20 -20 -20 -20 -20 -20 -20 -20 -20 -20 -20 -9 -20 -20 -20 -20 -20 -20 -20 -20
-20 -20 -20 -20 -20 -20 -20 -20 -20 -20 -20 -20 -20 -20 -20 -20 -20 -20 -20 -20 -20 -20
-20 -20 -20 -20 -20 -20 -20 -20 -20 -20 -20 -20 -20 -20 -20 -20 -20 -20 -20 -20 -20 -20
-20 -20 -20 -20 -20 -20 -20 -20 -20 -20 -20 -20 -20 -20 -20 -20 -20 -20 -20 -20 -20 -20
-20 -20 -20 -20 -20 -20 -20 -20 -20 -20 -20 -20 -20 -20 -20 -20 -20 -20 -20 -20 -20 -20
-20 -20 -20 -20 -20 -20 -20 -20 -20 -20 -20 -20 -20 -20 -20 -20 -20 -20 -20 -20 -20 -20
-20 -20 -20 -20 -20 -20 -20 -20 -20 -20 -20 -20 -20 -20 -20 -20 -20 -20 -20 -20 -20 -20
-20 -20 -20 -20 -20 -20 -20 -20 -20 -20 -20 -20 -20 -20 -20 -20 -20 -20 -20 -20 -20 -20
-20 -20 -20 -20 -20 -20 -20 -20 -20 -20 -20 -20 -20 -20 -20 -20 -20 -20 -20 -20 -20 -20
-20 -20 -20 -20 -20 -20 -20 -20 -20 -20 -20 -20 -20 -20 -20 -20 -20 -20 -20 -20 -20 -20
-20 -20 -20 -20 -20 -20 -20 -20 -20 -20 -20 -20 -20 -20 -20 -20 -20 -20 -20 -20 -20 -20
Wind_Speed
14 10 9 8 5 7 8 7 9 10 8 9 8 6 6 4 4 5 4 6 4 3
13 14 12 10 8 5 6 7 9 12 11 9 8 8 7 5 6 5 5 6 6 4
15 14 13 10 9 8 8 8 10 11 11 10 10 9 8 5 5 6 5 4 6 5
15 14 11 10 10 11 7 9 9 11 11 12 11 10 7 8 8 10 8 6 7 7
14 14 13 12 11 11 12 8 11 9 11 11 11 12 13 12 11 11 10 10 8 11
16 15 15 16 14 13 12 12 7 9 11 14 15 14 14 12 11 11 12 11 12 13
17 17 16 16 16 14 13 11 9 11 13 13 13 15 15 14 13 12 12 11 12 12
18 17 17 16 16 16 14 12 13 12 12 13 13 11 14 15 15 15 14 12 13 13
18 17 17 16 16 15 15 15 13 14 13 14 12 16 19 17 15 15 15 14 13 14
17 16 17 16 16 16 17 15 17 16 16 16 15 17 20 21 15 15 16 16 14 13
16 16 16 15 16 16 14 16 16 17 17 16 15 16 19 20 19 16 16 17 17 16
17 17 16 16 17 16 15 15 16 16 17 18 16 16 17 15 14 16 19 16 16 17
16 17 18 17 16 15 15 15 13 15 16 17 16 15 19 18 12 16 13 15 19 20
16 18 17 16 14 13 14 14 14 15 14 15 14 14 18 20 14 13 12 13 14 13
Wind_Direction
184 195 201 197 186 192 193 192 188 198 198 202 186 193 190 179 184 177 195 193 193 180
190 198 202 203 198 185 178 187 192 193 195 197 189 187 184 191 196 180 192 209 204 201
192 194 201 195 193 190 186 194 189 193 195 196 198 188 180 192 191 190 200 204 210 216
200 200 189 197 201 206 193 191 197 195 195 200 200 195 183 197 199 201 202 198 203 225
194 194 197 198 203 204 210 201 196 193 191 193 198 199 200 201 202 205 206 204 200 221
194 193 199 204 204 205 209 212 188 178 187 194 199 200 208 209 207 206 212 205 206 218
194 195 197 203 207 204 207 207 194 195 195 199 199 202 204 206 210 216 216 212 213 217
197 197 198 198 205 208 204 206 210 203 207 201 199 201 205 209 212 215 222 217 219 221
194 199 199 200 200 203 207 210 206 213 206 207 211 202 200 205 214 218 220 225 225 230
197 197 202 201 201 201 206 206 214 216 219 218 212 203 202 205 215 218 222 224 226 228
195 199 200 199 203 208 204 207 211 218 220 221 226 202 203 204 219 226 227 228 228 230
194 195 199 200 203 206 208 211 214 216 218 221 226 205 199 194 221 231 235 234 233 233
193 197 199 202 203 206 209 213 216 221 221 220 223 204 197 195 219 233 234 237 240 230
197 200 201 203 205 205 208 214 218 223 224 223 214 215 193 195 215 230 233 239 244 244